Hourly Data Report for October 04, 2017

All times are specified in Local Standard Time (LST). Add 1 hour to adjust for Daylight Saving Time where and when it is observed.

INGONISH BEACH RCS
NOVA SCOTIA

46°39'46.001" N
60°24'23.000" W
10.00 m
8202502
71027
XIB

Download Data

Hourly Data (October 2017)
Hourly Data Report for October 4, 2017
Temp Definition
°C
Dew Point Temp Definition
°C
Rel Hum Definition
%
Wind Dir Definition
10's deg

Wind Spd Definition
km/h
Visibility Definition
km
Stn Press Definition
kPa
Hmdx Definition


Wind Chill Definition


Weather Definition


TIME
00:00 3.7 2.3 91 25 3   102.61     LegendNANA
01:00 5.1 3.8 91 32 3   102.55     LegendNANA
02:00 7.0 5.4 89 2 2   102.44     LegendNANA
03:00 7.5 5.8 89 15 2   102.37     LegendNANA
04:00 9.8 6.8 81 17 6   102.31     LegendNANA
05:00 10.5 6.7 77 23 15   102.20     LegendNANA
06:00 10.7 7.0 78 24 17   102.11     LegendNANA
07:00 11.8 7.6 76 24 19   102.05     LegendNANA
08:00 13.5 8.4 71 22 15   102.02     LegendNANA
09:00 12.7 8.7 76 19 7   101.95     LegendNANA
10:00 14.8 9.2 69 24 11   101.90     LegendNANA
11:00 16.3 10.5 69 25 7   101.83     LegendNANA
12:00 17.6 9.8 60 24 10   101.76     LegendNANA
13:00 17.7 9.1 57 25 11   101.66     LegendNANA
14:00 18.9 9.3 53 25 8   101.57     LegendNANA
15:00 19.3 9.0 51 25 5   101.45     LegendNANA
16:00 19.6 9.1 51 23 4   101.44     LegendNANA
17:00 17.1 9.8 62 24 6   101.38     LegendNANA
18:00 16.7 10.0 64 22 5   101.29     LegendNANA
19:00 16.8 9.7 63 24 10   101.19     LegendNANA
20:00 17.1 9.4 60 22 7   101.15     LegendNANA
21:00 16.9 9.4 61 24 7   101.10     LegendNANA
22:00 17.3 9.1 58 20 7   101.06     LegendNANA
23:00 17.7 9.4 58 19 7   101.02     LegendNANA

Notes on Data Quality.

Legend

  • E = Estimated
  • M = Missing
  • NA = Not Available
  • ‡ = Partner data that is not subject to review by the National Climate Archives
Date modified: